Flag for U.S.A. Weather past 2 weeks in Thousand Oaks, California, U.S.A.

Now
63 °F

Clear.


Feels Like: 63 °F
Forecast: 59 / 79 °F
Wind: No wind

Location: Camarillo Airport

Current Time: Aug 21, 2014 at 7:07:50 AM

Latest Report: Aug 21, 2014 at 5:55 AM


Visibility: 10 mi

Pressure: 29.94 "Hg

Humidity: 73%

Dew point: 54 °F

Location of Thousand OaksLocation

Historic Weather in Thousand Oaks — Graph

°F

Thousand Oaks temperature yesterday

Maximum temperature yesterday: 79 °F (at 12:55 PM)
Minimum temperature yesterday: 67 °F (at 11:55 PM)
Average temperature yesterday: 72 °F

Past Weeks' High & Low Weather Summary

 TemperatureHumidityPressure
High82 °F (Aug 16, 2:55 PM)90% (Aug 15, 4:55 AM)30.08 "Hg (Aug 15, 4:55 AM)
Low60 °F (Aug 16, 5:55 AM)35% (Aug 16, 2:55 PM)29.81 "Hg (Aug 18, 6:55 PM)
Average70 °F70%29.96 "Hg
* Reported Aug 6 5:55 AM — Aug 21 5:55 AM, Thousand Oaks, Weather by CustomWeather, © 2014

Note: Actual official high and low records may vary slightly from our data, if they occured in-between our weather recording intervals... More about our weather records

Advertising

Thousand Oaks weather history for previous 24 hours

 ConditionsComfort  
Time TempWeatherWind HumidityBarometerVisibility
5:55 AM
Aug 21
63 °FClear.No wind73%29.94 "Hg10 mi
4:55 AM63 °FClear.No wind75%29.94 "Hg10 mi
3:55 AM64 °FClear.No wind73%29.94 "Hg10 mi
2:55 AM64 °FClear.No wind73%29.94 "Hg10 mi
1:55 AM65 °FClear.No wind70%29.93 "Hg10 mi
12:55 AM66 °FClear.3 mph70%29.94 "Hg10 mi
11:55 PM
Aug 20
67 °FClear.No wind68%29.94 "Hg10 mi
10:55 PM68 °FClear.No wind65%29.94 "Hg10 mi
9:55 PM68 °FClear.No wind68%29.94 "Hg10 mi
8:55 PM68 °FClear.3 mph68%29.93 "Hg10 mi
7:55 PM69 °FSunny.5 mph66%29.91 "Hg10 mi
6:55 PM72 °FSunny.10 mph57%29.91 "Hg10 mi
5:55 PM74 °FSunny.12 mph56%29.91 "Hg10 mi
4:55 PM76 °FSunny.10 mph54%29.91 "Hg10 mi
3:55 PM78 °FSunny.10 mph50%29.91 "Hg10 mi
2:55 PM78 °FSunny.8 mph50%29.92 "Hg10 mi
1:55 PM79 °FSunny.10 mph48%29.93 "Hg10 mi
12:55 PM79 °FSunny.10 mph48%29.95 "Hg10 mi
11:55 AM78 °FSunny.8 mph52%29.96 "Hg10 mi
10:55 AM77 °FSunny.8 mph54%29.96 "Hg10 mi
9:55 AM76 °FSunny.No wind54%29.96 "Hg10 mi
8:55 AM73 °FPassing clouds.No wind64%29.95 "Hg10 mi
7:55 AM70 °FOvercast.No wind71%29.94 "Hg10 mi
Weather by CustomWeather, © 2014

See weather overviewHow to use our weather pages